Location: Red Deer
(52.2681°N, 113.8112°W)
Time: 19:41:37
(UTC-07:00)

N. Korean satellite - Pass Details

Date: 04 December 2022
Orbit: 407 x 442 km, 97.3° (Epoch: 05 February)

Event Time Altitude Azimuth Distance (km) Brightness Sun altitude
Rises 17:53:11 0° 202° (SSW) 2,459 10.8 -12.7°
Reaches altitude 10° 17:55:39 10° 222° (SW) 1,603 10.2 -13.1°
Maximum altitude 17:58:09 19° 268° (W) 1,180 9.5 -13.5°
Drops below altitude 10° 18:00:42 10° 315° (NW) 1,631 9.6 -13.8°
Sets 18:03:14 0° 334° (NNW) 2,520 10.3 -14.2°
